This is the latest recevied weather packets stored in our database for station/object YM2KV-13. If no packets are shown the sender has not sent any weather packets the latest 10 day(s).
| Time | Temp. | Humidity | Pressure | Rain* | Wind** | Luminosity | Snow |
|---|---|---|---|---|---|---|---|
| 1777591780 | 8.89° C | 87% | 1025.4 hPa | - | - | - | - |
| 1777591179 | 9.44° C | 85% | 1025.3 hPa | - | - | - | - |
| 1777590580 | 9.44° C | 84% | 1025.1 hPa | - | - | - | - |
| 1777589980 | 9.44° C | 83% | 1025.2 hPa | - | - | - | - |
| 1777589379 | 9.44° C | 83% | 1025.2 hPa | - | - | - | - |
| 1777588780 | 9.44° C | 83% | 1025.4 hPa | - | - | - | - |
| 1777588179 | 9.44° C | 82% | 1025.3 hPa | - | - | - | - |
| 1777587579 | 8.89° C | 82% | 1025.3 hPa | - | - | - | - |
| 1777586979 | 9.44° C | 82% | 1025.4 hPa | - | - | - | - |
| 1777586379 | 9.44° C | 82% | 1025.5 hPa | - | - | - | - |
| 1777585779 | 9.44° C | 81% | 1025.5 hPa | - | - | - | - |
| 1777585179 | 9.44° C | 81% | 1025.4 hPa | - | - | - | - |
| 1777584580 | 9.44° C | 82% | 1025.6 hPa | - | - | - | - |
| 1777583979 | 9.44° C | 82% | 1025.3 hPa | - | - | - | - |
| 1777583379 | 8.89° C | 82% | 1025.4 hPa | - | - | - | - |
| 1777582779 | 9.44° C | 80% | 1025.5 hPa | - | - | - | - |
| 1777582179 | 9.44° C | 81% | 1025.6 hPa | - | - | - | - |
| 1777581579 | 9.44° C | 81% | 1025.6 hPa | - | - | - | - |
| 1777580979 | 9.44° C | 79% | 1025.5 hPa | - | - | - | - |
| 1777580379 | 9.44° C | 80% | 1025.9 hPa | - | - | - | - |
| 1777579779 | 9.44° C | 80% | 1025.8 hPa | - | - | - | - |
| 1777579179 | 9.44° C | 82% | 1025.6 hPa | - | - | - | - |
| 1777578579 | 9.44° C | 80% | 1025.5 hPa | - | - | - | - |
| 1777577979 | 10° C | 80% | 1025.7 hPa | - | - | - | - |
| 1777577379 | 10.56° C | 77% | 1025.7 hPa | - | - | - | - |
* Rain since midnight (hover to see other rain measurements)
** Current wind speed in m/s (hover to see current wind gust speed)